Cloud_Cover
0 4 0 0 0 0 0 0 0 0 0 0 0 0 0 0 0 0 0 0 0 0 0 0 0 0 0 0 0 0 0 0 0 0 0 0 0 0 0 0 0 0 0 5 2 0 1
0 0 0 0 0 0 0 0 0 0 0 0 0 0 0 0 0 0 0 0 0 0 0 0 0 0 0 0 0 0 0 0 0 0 0 0 0 0 0 1 0 0 4 5 3 5 3
2 1 0 0 0 0 0 0 0 0 0 0 0 0 0 0 0 0 0 0 0 0 0 0 0 0 0 0 0 0 0 0 0 0 0 0 0 0 0 0 0 0 5 1 5 4 3
0 0 0 0 0 0 0 0 0 0 0 0 0 0 0 0 0 0 0 0 0 0 0 0 0 0 0 0 0 0 0 0 0 0 0 0 0 0 0 0 1 5 5 5 5 5 0
0 0 0 0 0 0 0 0 0 0 0 0 0 0 0 0 0 0 0 0 0 0 0 0 0 0 0 0 0 0 0 0 3 3 0 0 0 0 1 4 5 15 8 5 5 0 1
0 0 0 0 0 0 0 0 0 0 0 0 0 0 0 0 0 0 0 0 0 0 0 0 0 0 0 0 0 0 0 0 0 4 3 0 0 0 0 4 5 35 45 27 5 0 0
0 0 0 0 0 0 0 0 0 0 0 0 0 0 0 0 0 0 0 0 0 0 0 0 0 0 0 0 0 0 1 0 0 0 0 0 5 4 0 1 5 6 54 5 5 3 0
0 0 0 0 0 0 0 0 0 0 0 0 0 0 0 0 0 0 0 0 0 0 0 0 0 0 0 0 0 0 0 2 0 0 0 5 3 4 0 0 5 5 18 5 14 5 0
0 0 0 0 0 0 0 0 0 0 0 0 0 0 0 0 0 0 0 0 0 0 0 0 0 0 0 3 3 4 5 5 5 0 4 5 0 0 0 1 5 5 16 63 21 73 3
0 0 0 0 0 0 0 0 0 0 0 0 0 0 0 0 0 0 0 0 0 0 0 0 3 5 5 5 5 5 5 5 5 5 5 5 0 0 0 2 5 7 74 34 53 37 4
0 0 0 0 0 0 0 0 0 0 0 0 0 0 0 0 0 0 0 0 0 0 1 0 5 3 5 5 5 5 5 5 5 5 5 5 0 0 5 5 11 37 93 99 98 17 39
0 0 0 0 0 0 0 0 0 0 0 0 0 0 0 0 1 0 0 0 3 0 0 0 3 0 5 5 9 5 5 5 5 5 5 5 4 3 5 16 29 11 95 100 100 97 60
0 0 0 0 0 0 0 0 0 0 0 1 5 5 2 5 5 1 5 3 0 0 0 3 5 5 5 5 5 5 5 7 58 5 5 5 0 2 13 50 73 90 94 100 57 54 5
0 0 0 0 0 0 3 0 0 0 0 0 1 5 4 4 1 0 5 3 5 5 5 5 5 5 5 5 5 5 36 70 49 53 57 13 8 70 78 93 100 72 61 5 4 0 4
0 0 0 0 0 0 0 0 0 0 0 0 0 0 3 2 4 4 1 5 5 5 5 5 5 5 5 5 5 6 65 11 6 62 93 100 42 5 5 5 28 5 5 5 0 0 3
0 0 0 0 0 0 0 0 0 0 0 0 0 0 0 2 5 3 1 5 6 5 5 5 8 5 16 5 5 5 10 6 5 5 63 27 5 5 5 5 4 5 5 4 5 3 4
0 0 0 0 0 0 0 0 0 0 0 0 0 0 0 0 0 2 5 5 11 5 10 11 19 15 5 5 5 5 5 5 5 5 5 5 5 5 5 3 4 5 12 55 2 5 5
0 0 0 0 0 0 0 0 0 0 0 0 0 0 0 0 0 0 4 5 38 8 5 30 6 32 5 5 44 8 5 6 12 12 36 25 5 5 5 5 5 5 28 5 5 6 14
0 0 0 0 0 0 0 0 0 0 0 0 0 0 0 0 0 4 12 34 5 5 5 5 8 33 5 5 5 5 85 98 19 7 50 36 6 5 5 25 8 5 56 5 5 5 46
0 0 0 0 0 0 0 0 0 0 0 0 0 0 0 0 0 19 2 5 5 5 5 5 5 5 5 5 6 30 35 69 70 35 11 22 10 15 5 5 5 85 21 5 5 5 21
0 0 0 0 0 0 0 0 0 0 0 0 0 0 0 0 0 0 1 4 5 5 5 5 5 5 5 5 38 12 52 50 67 30 22 5 14 33 5 5 5 17 11 32 53 87 34
6 35 32 46 63 61 49 24 84 17 0 0 0 5 0 0 0 5 5 5 5 5 31 13 64 96 40 28 68 92 100 90 39 7 8 57 76 94 53 5 36 89 5 5 58 100 5
100 100 100 100 100 100 100 100 100 100 91 10 2 1 25 0 1 5 4 11 45 100 72 47 81 83 64 19 73 76 60 18 26 5 10 37 12 7 34 48 11 20 5 2 5 61 29
100 100 100 100 100 100 100 100 100 98 100 100 100 100 97 74 100 96 100 5 8 46 51 85 88 99 67 46 38 5 6 5 5 5 9 5 5 71 41 6 5 4 0 5 5 5 5
100 95 98 92 53 73 99 100 100 100 100 100 100 100 100 100 95 17 96 100 99 70 100 100 100 75 42 74 34 77 38 6 5 5 64 34 40 78 5 5 7 0 1 4 5 2 61
100 100 100 98 99 100 72 18 43 100 100 100 100 100 100 100 92 41 100 100 100 100 100 100 100 100 100 98 78 100 100 72 80 68 90 96 72 7 78 100 82 1 0 1 4 2 5
100 100 94 100 100 97 34 30 12 62 100 100 100 100 100 100 100 100 100 100 100 100 100 100 100 100 54 28 100 98 99 100 97 100 85 98 82 56 98 100 12 4 3 2 4 39 11
100 97 100 100 100 100 96 96 70 94 100 100 100 100 100 100 100 100 100 100 100 100 100 100 100 89 92 98 89 99 100 100 94 99 98 100 100 90 85 100 61 0 2 58 41 87 100
100 95 85 100 100 78 78 94 67 96 100 100 100 100 100 100 100 100 100 100 100 100 100 100 100 100 100 100 100 100 100 100 100 100 100 100 99 97 93 11 5 7 86 100 100 100 100